When you browse on this site, cookies collect data to enhance your experience and personalize the content and advertising you see.
Visit our Privacy Policy to learn more. By continuing to use the site, you agree to this use of cookies and data.
  • In Hungary
  • List of Countries
  • For 7 days
  • Water Temperature
  • Weather Map
  • News
  • Weather Widgets
  • user-avatar
    Login

    Hourly Weather Tuson

    Today, 13 November, Wednesday

    Time Temperature Precipitation Wind Pressure Humidity
    00:00 +14°C° 0 mm 4 mps 697 mmHg 42%
    01:00 +14°C° 0 mm 4 mps 697 mmHg 43%
    02:00 +14°C° 0 mm 4 mps 696 mmHg 44%
    03:00 +13°C° 0 mm 3 mps 696 mmHg 45%
    04:00 +13°C° 0 mm 3 mps 696 mmHg 46%
    05:00 +12°C° 0 mm 5 mps 696 mmHg 44%
    06:00 +13°C° 0 mm 4 mps 696 mmHg 44%
    07:00 +13°C° 0 mm 4 mps 696 mmHg 43%
    08:00 +14°C° 0 mm 4 mps 696 mmHg 43%
    09:00 +17°C° 0 mm 3 mps 697 mmHg 38%
    10:00 +19°C° 0 mm 2 mps 697 mmHg 33%
    11:00 +21°C° 0 mm 2 mps 697 mmHg 29%
    12:00 +23°C° 0 mm 2 mps 697 mmHg 27%
    13:00 +25°C° 0 mm 2 mps 696 mmHg 25%
    14:00 +26°C° 0 mm 2 mps 695 mmHg 23%
    15:00 +25°C° 0 mm 2 mps 695 mmHg 24%
    16:00 +24°C° 0 mm 2 mps 695 mmHg 25%
    17:00 +24°C° 0 mm 2 mps 695 mmHg 26%
    18:00 +21°C° 0 mm 2 mps 695 mmHg 29%
    19:00 +21°C° 0 mm 1 mps 696 mmHg 32%
    20:00 +17°C° 0 mm 0 mps 696 mmHg 36%
    21:00 +17°C° 0 mm 0 mps 696 mmHg 36%
    22:00 +16°C° 0 mm 0 mps 696 mmHg 37%
    23:00 +16°C° 0 mm 0 mps 696 mmHg 37%

    Tomorrow, 14 November, Thursday

    Time Temperature Precipitation Wind Pressure Humidity
    00:00 +16°C° 0 mm 0 mps 696 mmHg 37%
    01:00 +15°C° 0 mm 0 mps 696 mmHg 38%
    02:00 +15°C° 0 mm 0 mps 696 mmHg 38%
    03:00 +15°C° 0 mm 0 mps 696 mmHg 39%
    04:00 +15°C° 0 mm 1 mps 696 mmHg 39%
    05:00 +15°C° 0 mm 1 mps 697 mmHg 40%
    06:00 +16°C° 0 mm 1 mps 697 mmHg 39%
    07:00 +18°C° 0 mm 1 mps 698 mmHg 37%
    08:00 +19°C° 0 mm 1 mps 698 mmHg 36%
    09:00 +21°C° 0 mm 1 mps 699 mmHg 31%
    10:00 +23°C° 0 mm 1 mps 699 mmHg 27%
    11:00 +25°C° 0 mm 1 mps 700 mmHg 22%
    12:00 +26°C° 0 mm 1 mps 699 mmHg 21%
    13:00 +26°C° 0 mm 1 mps 699 mmHg 20%
    14:00 +27°C° 0 mm 1 mps 698 mmHg 18%
    15:00 +26°C° 0 mm 1 mps 698 mmHg 21%
    16:00 +25°C° 0 mm 1 mps 698 mmHg 23%
    17:00 +25°C° 0 mm 1 mps 698 mmHg 25%
    18:00 +23°C° 0 mm 1 mps 698 mmHg 26%
    19:00 +22°C° 0 mm 1 mps 699 mmHg 28%
    20:00 +21°C° 0 mm 1 mps 699 mmHg 29%
    21:00 +20°C° 0 mm 2 mps 699 mmHg 30%
    22:00 +19°C° 0 mm 2 mps 699 mmHg 31%
    23:00 +19°C° 0 mm 2 mps 700 mmHg 31%

    Day after tomorrow, 15 November, Friday

    Time Temperature Precipitation Wind Pressure Humidity
    00:00 +19°C° 0 mm 2 mps 699 mmHg 32%
    01:00 +18°C° 0 mm 3 mps 699 mmHg 32%
    02:00 +18°C° 0 mm 3 mps 699 mmHg 33%
    03:00 +18°C° 0 mm 3 mps 699 mmHg 33%
    04:00 +17°C° 0 mm 4 mps 699 mmHg 34%
    05:00 +17°C° 0 mm 4 mps 699 mmHg 34%
    06:00 +17°C° 0 mm 4 mps 699 mmHg 34%
    07:00 +17°C° 0 mm 4 mps 699 mmHg 34%
    08:00 +17°C° 0 mm 4 mps 699 mmHg 34%
    09:00 +19°C° 0 mm 4 mps 700 mmHg 31%
    10:00 +21°C° 0 mm 4 mps 700 mmHg 28%
    11:00 +23°C° 0 mm 4 mps 700 mmHg 24%
    12:00 +25°C° 0 mm 4 mps 699 mmHg 23%
    13:00 +26°C° 0 mm 3 mps 699 mmHg 21%
    14:00 +27°C° 0 mm 3 mps 698 mmHg 20%
    15:00 +26°C° 0 mm 3 mps 698 mmHg 22%
    16:00 +25°C° 0 mm 3 mps 697 mmHg 24%
    17:00 +25°C° 0 mm 3 mps 697 mmHg 26%
    18:00 +24°C° 0 mm 3 mps 697 mmHg 27%
    19:00 +23°C° 0 mm 2 mps 697 mmHg 29%
    20:00 +21°C° 0 mm 2 mps 697 mmHg 30%
    21:00 +20°C° 0 mm 2 mps 697 mmHg 31%
    22:00 +19°C° 0 mm 2 mps 697 mmHg 32%
    23:00 +19°C° 0 mm 2 mps 697 mmHg 33%

    16 November, Saturday

    Time Temperature Precipitation Wind Pressure Humidity
    00:00 +18°C° 0 mm 2 mps 697 mmHg 34%
    01:00 +19°C° 0 mm 1 mps 696 mmHg 34%
    02:00 +19°C° 0 mm 1 mps 696 mmHg 35%
    03:00 +19°C° 0 mm 1 mps 696 mmHg 35%
    04:00 +17°C° 0 mm 2 mps 696 mmHg 36%
    05:00 +17°C° 0 mm 2 mps 696 mmHg 36%
    06:00 +18°C° 0 mm 2 mps 696 mmHg 36%
    07:00 +19°C° 0 mm 1 mps 696 mmHg 36%
    08:00 +20°C° 0 mm 1 mps 697 mmHg 36%
    09:00 +22°C° 0 mm 1 mps 697 mmHg 32%
    10:00 +24°C° 0 mm 1 mps 697 mmHg 27%
    11:00 +26°C° 0 mm 1 mps 698 mmHg 23%
    12:00 +26°C° 0 mm 2 mps 697 mmHg 22%
    13:00 +27°C° 0 mm 3 mps 696 mmHg 22%
    14:00 +27°C° 0 mm 3 mps 696 mmHg 21%
    15:00 +27°C° 0 mm 3 mps 696 mmHg 22%
    16:00 +26°C° 0 mm 3 mps 695 mmHg 24%
    17:00 +25°C° 0 mm 3 mps 695 mmHg 25%
    18:00 +24°C° 0 mm 2 mps 695 mmHg 28%
    19:00 +21°C° 0 mm 2 mps 695 mmHg 30%
    20:00 +21°C° 0 mm 1 mps 695 mmHg 33%
    21:00 +20°C° 0 mm 1 mps 695 mmHg 34%
    22:00 +20°C° 0 mm 1 mps 696 mmHg 35%
    23:00 +19°C° 0 mm 1 mps 696 mmHg 36%

    17 November, Sunday

    Time Temperature Precipitation Wind Pressure Humidity
    00:00 +19°C° 0 mm 1 mps 696 mmHg 36%
    01:00 +18°C° 0 mm 1 mps 696 mmHg 37%
    02:00 +18°C° 0 mm 1 mps 695 mmHg 38%
    03:00 +16°C° 0 mm 2 mps 696 mmHg 37%
    04:00 +16°C° 0 mm 2 mps 696 mmHg 36%
    05:00 +16°C° 0 mm 3 mps 696 mmHg 36%
    06:00 +16°C° 0 mm 3 mps 696 mmHg 33%
    07:00 +17°C° 0 mm 3 mps 697 mmHg 30%
    08:00 +17°C° 0 mm 2 mps 697 mmHg 28%
    09:00 +19°C° 0 mm 2 mps 698 mmHg 24%
    10:00 +20°C° 0 mm 2 mps 698 mmHg 21%
    11:00 +23°C° 0 mm 1 mps 698 mmHg 18%
    12:00 +24°C° 0 mm 1 mps 698 mmHg 16%
    13:00 +24°C° 0 mm 1 mps 697 mmHg 15%
    14:00 +25°C° 0 mm 1 mps 697 mmHg 13%
    15:00 +24°C° 0 mm 1 mps 697 mmHg 15%
    16:00 +23°C° 0 mm 1 mps 697 mmHg 17%
    17:00 +23°C° 0 mm 1 mps 697 mmHg 19%
    18:00 +21°C° 0 mm 1 mps 697 mmHg 20%
    19:00 +20°C° 0 mm 1 mps 697 mmHg 21%
    20:00 +18°C° 0 mm 2 mps 697 mmHg 23%
    21:00 +18°C° 0 mm 1 mps 697 mmHg 24%
    22:00 +16°C° 0 mm 1 mps 697 mmHg 24%
    23:00 +16°C° 0 mm 1 mps 697 mmHg 25%

    18 November, Monday

    Time Temperature Precipitation Wind Pressure Humidity
    00:00 +16°C° 0 mm 1 mps 697 mmHg 26%
    01:00 +15°C° 0 mm 1 mps 697 mmHg 26%
    02:00 +15°C° 0 mm 1 mps 697 mmHg 27%
    03:00 +14°C° 0 mm 1 mps 697 mmHg 27%
    04:00 +14°C° 0 mm 1 mps 696 mmHg 27%
    05:00 +14°C° 0 mm 1 mps 696 mmHg 27%
    06:00 +15°C° 0 mm 1 mps 697 mmHg 27%
    07:00 +16°C° 0 mm 1 mps 697 mmHg 26%
    08:00 +18°C° 0 mm 1 mps 697 mmHg 25%
    09:00 +20°C° 0 mm 1 mps 698 mmHg 22%
    10:00 +22°C° 0 mm 1 mps 698 mmHg 18%
    11:00 +24°C° 0 mm 1 mps 698 mmHg 15%
    12:00 +25°C° 0 mm 1 mps 697 mmHg 14%
    13:00 +26°C° 0 mm 1 mps 697 mmHg 14%
    14:00 +27°C° 0 mm 2 mps 696 mmHg 14%
    15:00 +26°C° 0 mm 2 mps 696 mmHg 16%
    16:00 +25°C° 0 mm 2 mps 695 mmHg 18%
    17:00 +24°C° 0 mm 2 mps 695 mmHg 21%
    18:00 +22°C° 0 mm 1 mps 695 mmHg 22%
    19:00 +21°C° 0 mm 1 mps 695 mmHg 24%
    20:00 +17°C° 0 mm 0 mps 695 mmHg 25%
    21:00 +17°C° 0 mm 0 mps 695 mmHg 26%
    22:00 +16°C° 0 mm 0 mps 695 mmHg 27%
    23:00 +16°C° 0 mm 0 mps 695 mmHg 27%
    Show more